www.pogodaiklimat.ru

Погода и климат >> Архив погоды >> Россия >> Приморский край >> Пограничный


АРХИВ ПОГОДЫ в Пограничном

Время (UTC), дата Ветер
(напр.,м/с)
 
Видим.   Явления Облачность Т
(С)
Тd
(С)
f
(%)
Тe
(С)
Тes
(С)
Комфортность P
(гПа)
Po
(гПа)
Тmin
(С)
Tmax
(С)
R
(мм)
R24
(мм)
S
(см)
18 13.07 З 1 20 км {ливн. осадки} 10/8 600 м
[Cb cap As op]
+16.8 +16.4 97 +18 +18 1004.2 979.0
21 13.07 З 1 20 км {ливн. осадки} 10/8 600 м
[Cb cap As op]
+16.9 +16.5 97 +18 +18 1004.5 979.3 +16.8 4
00 14.07 СВ 1 10 км слаб. дождь 10/10 600 м
[Frnb Ns]
+18.4 +17.8 96 +20 +20 1004.8 979.7
03 14.07 В 3 50 км в посл. час ливневой дождь 10/8 600 м
[Cb cap Cs]
+20.9 +18.2 85 +25 +28 комфорт 1004.9 980.0
06 14.07 В 3 50 км {ливн. осадки, дождь} 10/8 600 м
[Cb cap Cs]
+20.2 +16.9 81 +23 +25 комфорт 1004.5 979.5
09 14.07 З 1 50 км 8/6 600 м
[Cb cap Ac trans Cs]
+23.1 +17.9 73 +29 +29 очень
душно
1003.9 979.2 +23.1 0.7
12 14.07 З 2 20 км 4/3 600 м
[Cb cap Cc]
+18.3 +17.2 93 +19 +19 1006.0 980.9
15 14.07 З 2 20 км 10/5 600 м
[Sc Ac trans Cs]
+17.4 +16.7 96 +18 +18 1007.0 981.7
18 14.07 З 1 4000 м дымка 10/6 600 м
[Sc Ac trans Cs]
+17.8 +17.2 96 +19 +19 1006.9 981.7
21 14.07 штиль 0 20 км 10/0
[As trans]
+17.9 +17.4 97 +18 +18 1008.0 982.8 +17.3
00 15.07 В 2 20 км 10/10 600 м
[Sc]
+18.3 +17.5 95 +19 +19 1009.3 984.1
03 15.07 В 2 50 км 10/9 600 м
[Cb cap Ci sp]
+21.1 +17.4 79 +25 +26 комфорт 1009.6 984.6
06 15.07 ЮВ 3 50 км 10/6 600 м
[Cb cap Ci sp]
+23.5 +17.8 70 +28 +31 душно 1008.7 983.9
09 15.07 ЮВ 3 50 км 8/4 600 м
[Cb cap Ac lent Ci sp]
+22.3 +17.6 75 +27 +28 душно 1009.2 984.3 +24.1
12 15.07 ЮВ 2 20 км 6/3 600 м
[Cb cap Ac lent Ci fib]
+18.9 +17.1 89 +21 +21 комфорт 1011.2 986.0
15 15.07 ЮВ 1 20 км 3/0
[Ac lent]
+16.0 +15.4 96 +17 +17 1012.3 986.8
18 15.07 ЮЗ 2 20 км 4/0
[Ac lent Ci fib]
+15.6 +14.8 95 +15 +15 1012.4 986.8
21 15.07 СВ 1 50 км 9/6 600 м
[Cb cap Ac trans Ci fib]
+15.7 +15.0 96 +16 +17 1013.1 987.5 +14.1
00 16.07 Ю 3 50 км 10/6 600 м
[Cb cap Ac trans Ci fib]
+19.0 +15.8 82 +21 +22 комфорт 1012.8 987.6
03 16.07 Ю 3 50 км 10/8 600 м
[Cb cap Ac trans Ci sp]
+21.7 +16.3 71 +25 +27 комфорт 1012.0 987.0
06 16.07 ЮВ 3 50 км 10/8 600 м
[Cb cap Ac trans Ci sp]
+22.9 +17.9 73 +28 +29 душно 1010.6 985.7
09 16.07 ЮВ 4 50 км 10/5 600 м
[Cb cap As trans Cs]
+21.0 +17.0 78 +25 +25 комфорт 1010.6 985.6 +23.9
12 16.07 В 2 20 км 10/3 600 м
[Sc As trans Ci fib]
+17.3 +15.5 89 +18 +18 1011.7 986.3
15 16.07 СЗ 1 20 км 8/0
[Ci fib]
+14.5 +14.0 97 +15 +15 1011.7 986.1
18 16.07 СВ 1 4000 м дымка 10/3 600 м
[Sc Cs]
+14.0 +13.6 97 +14 +14 1011.3 985.6
21 16.07 штиль 0 50 км 8/3 600 м
[Sc Ci fib]
+15.0 +14.6 97 +15 +15 1010.7 985.2 +13.9
00 17.07 Ю 2 50 км 10/5 600 м
[Cb cap Ac trans Ci fib]
+19.7 +16.0 79 +22 +25 комфорт 1009.7 984.6
03 17.07 ЮВ 2 50 км 10/4 600 м
[Cb cap Ac trans Ci sp]
+22.6 +18.0 75 +28 +33 душно 1008.6 983.8
06 17.07 ЮВ 3 50 км 10/5 600 м
[Cb cap Ac trans Cs]
+22.1 +19.2 84 +28 +30 душно 1007.8 983.0
09 17.07 В 2 50 км 10/8 600 м
[Cb cap As trans Cs]
+19.6 +17.9 90 +23 +23 комфорт 1007.5 982.4 +23.6
12 17.07 СВ 1 20 км {гроза, ливн. осадки} 10/8 600 м
[Cb cap Cs]
+18.1 +17.6 97 +19 +19 1008.7 983.4
15 17.07 В 1 20 км 10/8 600 м
[Cb cap As trans Cs]
+17.9 +17.5 98 +19 +19 1008.8 983.5
18 17.07 штиль 0 4000 м дымка 10/5 600 м
[Cb cap As trans]
+17.9 +17.4 97 +18 +18 1008.0 982.8
21 17.07 штиль 0 20 км 10/0
[As trans]
+17.8 +17.3 97 +18 +18 1007.7 982.5 +17.7 2
00 18.07 Ю 2 50 км 9/3 600 м
[Cu med, cong Ac trans Cc]
+22.1 +19.4 85 +28 +32 душно 1006.9 982.1
03 18.07 Ю 3 50 км 10/5 600 м
[Cb cap Ci sp]
+25.9 +20.5 72 +32 +38 очень
душно
1005.9 981.4
06 18.07 Ю 3
{18}
50 км гроза без осадков {ливн. осадки} 10/8 600 м
[Cb cap Ac lent Ci sp]
+23.1 +18.8 77 +29 +30 очень
душно
1004.8 980.1
09 18.07 ЮВ 4 50 км {гроза} 8/3 600 м
[Cb cap Ac lent Ci sp]
+24.1 +19.6 76 +29 +30 душно 1003.8 979.2 +26.5 12
12 18.07 В 1 20 км {гроза} 8/3 600 м
[Cb cap Ac lent Ci sp]
+20.4 +19.7 96 +26 +26 душно 1005.8 980.9
15 18.07 С 1 20 км 10/0
[Cs]
+19.7 +19.2 97 +24 +24 комфорт 1006.1 981.1
18 18.07 штиль 0 1000 м дымка 10/0
[As trans]
+19.6 +19.1 97 +22 +22 комфорт 1006.1 981.0
21 18.07 З 1 500 м туман ?/? +18.6 +18.6 100 +21 +21 комфорт 1006.8 981.7 +18.6
00 19.07 В 1 50 км {туман} 3/0
[Cs]
+24.6 +20.4 77 +30 +42 очень
душно
1006.4 981.8 +18.5
03 19.07 ЮВ 2 50 км 8/8 600 м
[Cb cap]
+28.4 +19.5 59 +34 +38 очень
душно
1006.1 981.8
06 19.07 Ю 1 50 км 8/6 600 м
[Cb cap Ci fib]
+29.8 +19.0 52 +35 +40 очень
душно
1005.3 981.1
09 19.07 ЮВ 3 50 км 6/4 600 м
[Cb cap Ci fib]
+27.9 +22.1 71 +36 +37 очень
душно
1005.8 981.6 +31.0
12 19.07 В 1 20 км 4/0
[Ci fib]
+23.3 +21.5 90 +31 +31 очень
душно
1007.7 983.0
15 19.07 СВ 1 4000 м дымка 10/0
[Cs]
+20.1 +19.6 97 +25 +25 комфорт 1008.9 983.9
18 19.07 штиль 0 4000 м дымка 10/0
[Cs]
+20.0 +19.6 98 +23 +23 комфорт 1008.9 983.9
21 19.07 ЮВ 1 500 м туман ?/? +19.5 +19.5 100 +23 +23 комфорт 1009.9 984.8 +19.4
00 20.07 СВ 1 20 км {туман} 10/0
[As trans]
+20.3 +19.9 98 +25 +30 комфорт 1010.4 985.4
03 20.07 ЮВ 2 50 км 10/8 600 м
[Cu med, cong Cs]
+25.6 +20.9 75 +32 +35 очень
душно
1009.7 985.1
06 20.07 ЮВ 4 50 км 3/3 600 м
[Cb cap Ci fib]
+26.7 +21.5 73 +34 +40 очень
душно
1008.2 983.7
09 20.07 ЮВ 4 50 км 3/3 600 м
[Cb cap Cs]
+24.6 +20.5 78 +31 +31 очень
душно
1008.1 983.5 +27.0
12 20.07 ЮВ 1 20 км 4/4 600 м
[Cb cap]
+20.6 +19.3 92 +26 +26 душно 1010.0 985.0
15 20.07 штиль 0 20 км 10/8 600 м
[Cb cap As op]
+20.8 +19.8 94 +25 +25 комфорт 1009.9 984.9

 

Местоположение метеостанции Пограничный (Приморский край, Россия): широта 44.40 долгота 131.30 высота над уровнем моря 211 м.

В архиве по умолчанию представлена погода в Пограничном за последнюю неделю. Архивные данные за месяц целиком и за предыдущие месяцы, начиная с января 2011 года, Вы можете получить, выбрав интересующий диапазон дат из раскрывающегося списка и нажав кнопку "Ввод!".


*Определитесь, кто Вы:
робот инопланетянин человек

Внимание! Время в таблицах - всемирное. Для получения местного времени необходимо прибавить поправку, которая равна 10 ч.

Смотрите также архив погоды в соседних городах и на ближайших метеорологических станциях:

Погода в Суйфэньхэ (Хэйлунцзян, Китай) (12 км)
Погода в Полтавке (Приморский край, Россия) (41 км)
Погода в Хороле (Приморский край, Россия) (56 км)
Погода в Астраханке (Приморский край, Россия) (66 км)
Погода в Тимирязевском (Приморский край, Россия) (75 км)
Погода в Цзиси (Хэйлунцзян, Китай) (102 км)
Погода в Турьем Роге (Приморский край, Россия) (105 км)
Погода в Спасск-Дальнем (Приморский край, Россия) (122 км)
Погода в Барабаше (Приморский край, Россия) (134 км)
Погода в Муданьцзяне (Хэйлунцзян, Китай) (136 км)

Пояснения к столбцам:

Ветер - указаны скорость ветра в м/с - средняя за 10 мин, порывы в срок и между сроками (в фигурных скобках) и направление, откуда дует ветер: С - северный, СВ - северо-восточный, В - восточный, ЮВ - юго-восточный, Ю - южный, ЮЗ - юго-западный, З - западный, СЗ - северо-западный.
Видимость - горизонтальная дальность видимости в метрах или километрах. При видимости от 1 до 10 км при отсутствии осадков обычно наблюдается дымка, при ухудшении видимости до 1 км и менее - туман. В сухую погоду видимость может ухудшаться дымом, пылью или мглою.
Явления - указаны атмосферные явления, наблюдавшиеся в срок или в последний час перед сроком; фигурными скобками обозначены явления, наблюдавшиеся между сроками (за 1-3 часа до срока); квадратными скобками обозначены град или гололедные отложения с указанием их диаметра в мм.
Облачность - указаны через наклонную черту общая и нижняя облачность в баллах и высота нижней границы облаков в метрах; квадратными скобками обозначены формы облаков: Ci - перистые, Cs - перисто-слоистые, Cc - перисто-кучевые, Ac - высококучевые, As - высокослоистые, Sc - слоисто-кучевые, Ns - слоисто-дождевые, Cu - кучевые, Cb - кучево-дождевые. Подробнее классификацию облаков см. в Атласе облаков (PDF).
T - Температура воздуха - температура, измеренная на высоте 2 м над землей.
Td - Температура точки росы - температура, при понижении до которой содержащийся в воздухе водяной пар достигнет насыщения.
f - Относительная влажность воздуха - влажноcть воздуха, измеренная на высоте 2 м над землей.
Te - Эффективная температура - температура, которую ощущает одетый по сезону человек в тени. Характеристика душности погоды. При расчете учитывается влияние влажности воздуха и скорости ветра на теплоощущения человека.
Tes - Эффективная температура на солнце - температура, которую ощущает человек, с поправкой на солнечный нагрев. Характеристика знойности погоды. Зависит от высоты солнца над горизонтом, облачности и скорости ветра. Ночью, в пасмурную погоду, а также при ветре 12 м/с и более поправка равна нулю.
P - Атмосферное давление - приведенное к уровню моря атмосферное давление.
Po - Атмосферное давление - измеренное на уровне метеостанции атмосферное давление.
Tmin - Минимальная температура - минимум температуры воздуха на высоте 2 м над землей.
Tmax - Максимальная температура - максимум температуры воздуха на высоте 2 м над землей.
R - Количество осадков - Количество выпавших осадков за период времени, мм. При наведении курсора мыши на число - период времени, за который выпало указанное количество осадков.
R24 - Количество осадков - Количество выпавших осадков за 24 часа, мм.
S - Снежный покров - Высота снежного покрова, см. При наведении курсора мыши на число - состояние снежного покрова и степень покрытия местности в баллах.